• Em Portugal
  • Lista de países
  • Para 7 dias
  • Temperatura da água
  • Mapas de satélite
  • Mapa do tempo
  • Widgets de tempo
  • user-avatar
    Iniciar Sessão

    Previsão horária em Ongandyera

    Hoje, 15 Dezembro, Sexta-feira

    Tempo Temperatura Precipitação Vento Pressão Humidade
    00:00 +29°C° 0 mm 5 m/s 668 mmHg 17%
    01:00 +28°C° 0 mm 5 m/s 668 mmHg 19%
    02:00 +27°C° 0 mm 4 m/s 668 mmHg 20%
    03:00 +26°C° 0 mm 3 m/s 668 mmHg 21%
    04:00 +25°C° 0 mm 2 m/s 668 mmHg 22%
    05:00 +26°C° 0 mm 2 m/s 668 mmHg 21%
    06:00 +27°C° 0 mm 2 m/s 669 mmHg 20%
    07:00 +27°C° 0 mm 2 m/s 669 mmHg 19%
    08:00 +29°C° 0 mm 2 m/s 669 mmHg 17%
    09:00 +31°C° 0 mm 3 m/s 670 mmHg 15%
    10:00 +34°C° 0 mm 3 m/s 670 mmHg 13%
    11:00 +35°C° 0 mm 3 m/s 670 mmHg 12%
    12:00 +36°C° 0 mm 3 m/s 669 mmHg 11%
    13:00 +37°C° 0 mm 3 m/s 669 mmHg 10%
    14:00 +38°C° 0 mm 2 m/s 668 mmHg 10%
    15:00 +38°C° 0 mm 2 m/s 668 mmHg 9%
    16:00 +38°C° 0 mm 2 m/s 667 mmHg 9%
    17:00 +37°C° 0 mm 2 m/s 667 mmHg 10%
    18:00 +36°C° 0 mm 2 m/s 667 mmHg 11%
    19:00 +35°C° 0 mm 2 m/s 667 mmHg 11%
    20:00 +34°C° 0 mm 4 m/s 667 mmHg 13%
    21:00 +33°C° 0 mm 5 m/s 668 mmHg 14%
    22:00 +32°C° 0 mm 7 m/s 668 mmHg 16%
    23:00 +30°C° 0 mm 6 m/s 668 mmHg 17%

    Amanhã, 16 Dezembro, Sábado

    Tempo Temperatura Precipitação Vento Pressão Humidade
    00:00 +29°C° 0 mm 5 m/s 668 mmHg 18%
    01:00 +28°C° 0 mm 4 m/s 668 mmHg 19%
    02:00 +27°C° 0 mm 4 m/s 667 mmHg 19%
    03:00 +27°C° 0 mm 4 m/s 667 mmHg 19%
    04:00 +26°C° 0 mm 3 m/s 667 mmHg 19%
    05:00 +27°C° 0 mm 3 m/s 667 mmHg 19%
    06:00 +27°C° 0 mm 3 m/s 668 mmHg 20%
    07:00 +28°C° 0 mm 3 m/s 668 mmHg 20%
    08:00 +30°C° 0 mm 3 m/s 668 mmHg 23%
    09:00 +33°C° 0 mm 3 m/s 669 mmHg 26%
    10:00 +34°C° 0 mm 3 m/s 669 mmHg 29%
    11:00 +35°C° 0 mm 3 m/s 668 mmHg 27%
    12:00 +37°C° 0 mm 3 m/s 668 mmHg 26%
    13:00 +38°C° 0 mm 3 m/s 668 mmHg 24%
    14:00 +38°C° 0 mm 2 m/s 667 mmHg 24%
    15:00 +38°C° 0 mm 2 m/s 667 mmHg 24%
    16:00 +38°C° 0 mm 2 m/s 666 mmHg 24%
    17:00 +37°C° 0,1 mm 2 m/s 666 mmHg 25%
    18:00 +36°C° 0,1 mm 2 m/s 666 mmHg 26%
    19:00 +35°C° 0,1 mm 3 m/s 667 mmHg 28%
    20:00 +35°C° 0,2 mm 3 m/s 667 mmHg 30%
    21:00 +34°C° 0,2 mm 4 m/s 668 mmHg 33%
    22:00 +33°C° 0,2 mm 4 m/s 668 mmHg 35%
    23:00 +32°C° 0,5 mm 5 m/s 668 mmHg 33%

    Depois de amanhã, 17 Dezembro, Domingo

    Tempo Temperatura Precipitação Vento Pressão Humidade
    00:00 +30°C° 0,5 mm 5 m/s 668 mmHg 31%
    01:00 +29°C° 0,5 mm 5 m/s 668 mmHg 28%
    02:00 +29°C° 0,1 mm 5 m/s 667 mmHg 28%
    03:00 +28°C° 0,1 mm 4 m/s 667 mmHg 28%
    04:00 +28°C° 0,1 mm 3 m/s 667 mmHg 27%
    05:00 +28°C° 0,2 mm 3 m/s 667 mmHg 28%
    06:00 +27°C° 0,2 mm 3 m/s 668 mmHg 29%
    07:00 +27°C° 0,2 mm 3 m/s 668 mmHg 29%
    08:00 +28°C° 0,4 mm 3 m/s 668 mmHg 33%
    09:00 +29°C° 0,4 mm 3 m/s 668 mmHg 36%
    10:00 +29°C° 0,4 mm 2 m/s 669 mmHg 39%
    11:00 +30°C° 0,1 mm 2 m/s 668 mmHg 38%
    12:00 +31°C° 0,1 mm 2 m/s 668 mmHg 37%
    13:00 +32°C° 0,1 mm 2 m/s 668 mmHg 37%
    14:00 +33°C° 0 mm 3 m/s 667 mmHg 35%
    15:00 +33°C° 0 mm 3 m/s 667 mmHg 34%
    16:00 +33°C° 0 mm 3 m/s 666 mmHg 33%
    17:00 +33°C° 0 mm 3 m/s 667 mmHg 34%
    18:00 +31°C° 0 mm 3 m/s 667 mmHg 35%
    19:00 +31°C° 0 mm 3 m/s 667 mmHg 37%
    20:00 +30°C° 0 mm 2 m/s 667 mmHg 38%
    21:00 +30°C° 0 mm 2 m/s 668 mmHg 40%
    22:00 +29°C° 0 mm 1 m/s 668 mmHg 42%
    23:00 +29°C° 0 mm 2 m/s 668 mmHg 43%

    18 Dezembro, Segunda-feira

    Tempo Temperatura Precipitação Vento Pressão Humidade
    00:00 +29°C° 0 mm 2 m/s 668 mmHg 43%
    01:00 +28°C° 0 mm 2 m/s 667 mmHg 44%
    02:00 +28°C° 0,1 mm 2 m/s 667 mmHg 45%
    03:00 +27°C° 0,1 mm 2 m/s 667 mmHg 46%
    04:00 +26°C° 0,1 mm 2 m/s 667 mmHg 47%
    05:00 +27°C° 0,1 mm 2 m/s 667 mmHg 46%
    06:00 +27°C° 0,1 mm 2 m/s 667 mmHg 45%
    07:00 +27°C° 0,1 mm 2 m/s 668 mmHg 45%
    08:00 +28°C° 0 mm 1 m/s 668 mmHg 42%
    09:00 +29°C° 0 mm 1 m/s 668 mmHg 40%
    10:00 +31°C° 0 mm 1 m/s 668 mmHg 38%
    11:00 +32°C° 0 mm 2 m/s 667 mmHg 36%
    12:00 +32°C° 0 mm 2 m/s 667 mmHg 34%
    13:00 +34°C° 0 mm 3 m/s 666 mmHg 32%
    14:00 +34°C° 0 mm 3 m/s 666 mmHg 32%
    15:00 +34°C° 0 mm 3 m/s 665 mmHg 32%
    16:00 +34°C° 0 mm 3 m/s 665 mmHg 32%
    17:00 +34°C° 0,1 mm 3 m/s 665 mmHg 33%
    18:00 +33°C° 0,1 mm 3 m/s 665 mmHg 35%
    19:00 +31°C° 0,1 mm 3 m/s 666 mmHg 37%
    20:00 +31°C° 0,2 mm 3 m/s 666 mmHg 37%
    21:00 +30°C° 0,2 mm 3 m/s 667 mmHg 38%
    22:00 +30°C° 0,2 mm 3 m/s 667 mmHg 39%
    23:00 +29°C° 0,2 mm 3 m/s 667 mmHg 38%

    19 Dezembro, Terça-feira

    Tempo Temperatura Precipitação Vento Pressão Humidade
    00:00 +29°C° 0,2 mm 3 m/s 666 mmHg 38%
    01:00 +29°C° 0,2 mm 3 m/s 666 mmHg 38%
    02:00 +28°C° 0 mm 3 m/s 666 mmHg 36%
    03:00 +28°C° 0 mm 3 m/s 666 mmHg 35%
    04:00 +27°C° 0 mm 3 m/s 665 mmHg 33%
    05:00 +27°C° 0 mm 3 m/s 666 mmHg 33%
    06:00 +27°C° 0 mm 3 m/s 666 mmHg 32%
    07:00 +27°C° 0 mm 3 m/s 667 mmHg 31%
    08:00 +28°C° 0 mm 3 m/s 667 mmHg 28%
    09:00 +29°C° 0 mm 2 m/s 667 mmHg 24%
    10:00 +30°C° 0 mm 2 m/s 667 mmHg 21%
    11:00 +31°C° 0 mm 2 m/s 667 mmHg 21%
    12:00 +32°C° 0 mm 2 m/s 666 mmHg 21%
    13:00 +34°C° 0 mm 2 m/s 666 mmHg 20%
    14:00 +35°C° 0 mm 2 m/s 665 mmHg 20%
    15:00 +35°C° 0 mm 2 m/s 665 mmHg 19%
    16:00 +36°C° 0 mm 2 m/s 665 mmHg 19%
    17:00 +35°C° 0 mm 3 m/s 665 mmHg 21%
    18:00 +34°C° 0 mm 4 m/s 665 mmHg 23%
    19:00 +34°C° 0 mm 5 m/s 666 mmHg 24%
    20:00 +32°C° 0 mm 5 m/s 666 mmHg 26%
    21:00 +30°C° 0 mm 5 m/s 667 mmHg 28%
    22:00 +29°C° 0 mm 5 m/s 667 mmHg 30%
    23:00 +28°C° 0 mm 5 m/s 667 mmHg 31%

    20 Dezembro, Quarta-feira

    Tempo Temperatura Precipitação Vento Pressão Humidade
    00:00 +27°C° 0 mm 4 m/s 666 mmHg 32%
    01:00 +26°C° 0 mm 4 m/s 666 mmHg 33%
    02:00 +26°C° 0 mm 3 m/s 666 mmHg 33%
    03:00 +25°C° 0 mm 3 m/s 666 mmHg 33%
    04:00 +25°C° 0 mm 3 m/s 666 mmHg 34%
    05:00 +25°C° 0 mm 3 m/s 666 mmHg 32%
    06:00 +25°C° 0 mm 3 m/s 667 mmHg 30%
    07:00 +25°C° 0 mm 3 m/s 667 mmHg 29%
    08:00 +26°C° 0 mm 2 m/s 667 mmHg 27%
    09:00 +28°C° 0 mm 2 m/s 667 mmHg 25%
    10:00 +29°C° 0 mm 2 m/s 668 mmHg 23%
    11:00 +30°C° 0 mm 2 m/s 667 mmHg 21%
    12:00 +31°C° 0 mm 2 m/s 667 mmHg 19%
    13:00 +34°C° 0 mm 2 m/s 667 mmHg 16%
    14:00 +34°C° 0 mm 2 m/s 667 mmHg 15%
    15:00 +35°C° 0 mm 2 m/s 666 mmHg 14%
    16:00 +35°C° 0 mm 2 m/s 666 mmHg 13%
    17:00 +35°C° 0 mm 2 m/s 666 mmHg 13%
    18:00 +34°C° 0 mm 2 m/s 667 mmHg 14%
    19:00 +32°C° 0 mm 2 m/s 667 mmHg 15%
    20:00 +31°C° 0 mm 3 m/s 667 mmHg 17%
    21:00 +30°C° 0 mm 4 m/s 668 mmHg 19%
    22:00 +28°C° 0 mm 5 m/s 668 mmHg 22%
    23:00 +27°C° 0 mm 5 m/s 668 mmHg 23%
    Mostrar mais